ABS-3A                  
1 40424U 15010A   19261.05467637 -.00000030  00000-0  00000+0 0  9991
2 40424   0.0136 158.2794 0002977 289.2472 285.8645  1.00272457 16701
EUTELSAT 115 WEST B     
1 40425U 15010B   19261.54159299 -.00000029  00000-0  00000+0 0  9996
2 40425   0.0211 324.9120 0000396 146.0376 326.2893  1.00272926 16736
FALCON 9 R/B            
1 40426U 15010C   19259.32016295  .00000179  00000-0  13972-3 0  9999
2 40426  22.8847 109.2944 8268122 314.9069   2.5286  1.17202384 19369